Wetterdaten: Woche 06.01.14 - 12.01.14 (KW2)
Datum Zeit Temp. I. Temp. A. Feuchte I. Feuchte A. Luftdruck Regen Wind Richtung ET UV Solar Taupunkt Windchill Windben
06.01.2014 00:00 24,3 C 1,0 C 63 % 96 % 1016,3 hPa 0,0 l/m 0,0 km/h (0 Bft) N 0,000 mm 0,0 UV-I 0 W/m 0,5 C 1,0 C 0,3 km/h (0 Bft)
06.01.2014 01:00 24,0 C -0,3 C 63 % 95 % 1016,1 hPa 0,0 l/m 0,1 km/h (0 Bft) SW 0,000 mm 0,0 UV-I 0 W/m -0,9 C -0,3 C 0,5 km/h (0 Bft)
06.01.2014 02:00 23,8 C -1,6 C 63 % 96 % 1016,3 hPa 0,0 l/m 0,4 km/h (0 Bft) O-SO 0,000 mm 0,0 UV-I 0 W/m -2,1 C -1,6 C 1,0 km/h (0 Bft)
06.01.2014 03:00 23,7 C -1,9 C 63 % 97 % 1016,4 hPa 0,0 l/m 0,4 km/h (0 Bft) S 0,000 mm 0,0 UV-I 0 W/m -2,3 C -1,9 C 1,5 km/h (1 Bft)
06.01.2014 04:00 23,6 C -0,4 C 63 % 99 % 1016,4 hPa 0,2 l/m 5,8 km/h (2 Bft) S 0,000 mm 0,0 UV-I 0 W/m -0,5 C -0,8 C 9,3 km/h (2 Bft)
06.01.2014 05:00 23,5 C 0,9 C 63 % 99 % 1016,6 hPa 0,0 l/m 7,2 km/h (2 Bft) S 0,000 mm 0,0 UV-I 0 W/m 0,7 C -0,4 C 10,5 km/h (2 Bft)
06.01.2014 06:00 23,6 C 1,0 C 63 % 99 % 1016,4 hPa 0,0 l/m 8,7 km/h (2 Bft) S 0,000 mm 0,0 UV-I 0 W/m 0,8 C -1,1 C 13,2 km/h (3 Bft)
06.01.2014 07:00 23,8 C 1,0 C 63 % 97 % 1016,3 hPa 0,0 l/m 6,3 km/h (2 Bft) S 0,000 mm 0,0 UV-I 0 W/m 0,6 C -0,3 C 9,2 km/h (2 Bft)
06.01.2014 08:00 23,9 C 0,9 C 63 % 97 % 1016,8 hPa 0,0 l/m 3,7 km/h (1 Bft) S-SW 0,000 mm 0,0 UV-I 23 W/m 0,5 C 0,9 C 6,0 km/h (2 Bft)
06.01.2014 09:00 24,1 C 2,0 C 63 % 94 % 1017,6 hPa 0,0 l/m 4,2 km/h (1 Bft) S-SW 0,000 mm 0,0 UV-I 92 W/m 1,2 C 1,9 C 6,3 km/h (2 Bft)
06.01.2014 10:00 23,9 C 2,9 C 61 % 91 % 1017,4 hPa 0,0 l/m 8,1 km/h (2 Bft) S-SO 0,025 mm 0,0 UV-I 134 W/m 1,6 C 1,3 C 11,9 km/h (2 Bft)
06.01.2014 11:00 23,8 C 4,3 C 59 % 88 % 1016,8 hPa 0,0 l/m 8,9 km/h (2 Bft) S-SW 0,051 mm 0,0 UV-I 159 W/m 2,5 C 2,2 C 13,5 km/h (3 Bft)
06.01.2014 12:00 23,7 C 4,9 C 59 % 87 % 1016,5 hPa 0,0 l/m 9,9 km/h (2 Bft) S 0,076 mm 0,0 UV-I 120 W/m 2,9 C 2,1 C 14,8 km/h (3 Bft)
06.01.2014 13:00 23,9 C 4,7 C 59 % 87 % 1016,2 hPa 0,0 l/m 9,8 km/h (2 Bft) S 0,051 mm 0,0 UV-I 92 W/m 2,7 C 1,9 C 14,4 km/h (3 Bft)
06.01.2014 14:00 24,1 C 4,7 C 59 % 87 % 1016,3 hPa 0,0 l/m 4,2 km/h (1 Bft) S-SW 0,051 mm 0,0 UV-I 44 W/m 2,7 C 4,6 C 6,9 km/h (2 Bft)
06.01.2014 15:00 24,3 C 4,8 C 61 % 85 % 1016,5 hPa 0,0 l/m 6,6 km/h (2 Bft) S-SO 0,025 mm 0,0 UV-I 29 W/m 2,5 C 4,2 C 9,5 km/h (2 Bft)
06.01.2014 16:00 24,4 C 4,8 C 61 % 82 % 1016,6 hPa 0,0 l/m 3,5 km/h (1 Bft) S 0,025 mm 0,0 UV-I 11 W/m 1,9 C 4,8 C 5,7 km/h (1 Bft)
06.01.2014 17:00 24,2 C 4,6 C 61 % 82 % 1016,5 hPa 0,0 l/m 4,1 km/h (1 Bft) S 0,000 mm 0,0 UV-I 0 W/m 1,8 C 4,5 C 6,4 km/h (2 Bft)
06.01.2014 18:00 24,1 C 4,2 C 61 % 86 % 1016,5 hPa 0,0 l/m 1,4 km/h (1 Bft) W-NW 0,025 mm 0,0 UV-I 0 W/m 2,1 C 4,2 C 2,7 km/h (1 Bft)
06.01.2014 19:00 24,1 C 3,4 C 60 % 89 % 1015,8 hPa 0,0 l/m 1,7 km/h (1 Bft) NW 0,000 mm 0,0 UV-I 0 W/m 1,8 C 3,4 C 2,6 km/h (1 Bft)
06.01.2014 20:00 24,4 C 2,9 C 60 % 91 % 1015,5 hPa 0,0 l/m 1,0 km/h (0 Bft) NW 0,000 mm 0,0 UV-I 0 W/m 1,6 C 2,9 C 2,0 km/h (1 Bft)
06.01.2014 21:00 24,5 C 2,6 C 60 % 94 % 1015,3 hPa 0,0 l/m 1,3 km/h (1 Bft) NW 0,000 mm 0,0 UV-I 0 W/m 1,7 C 2,6 C 2,3 km/h (1 Bft)
06.01.2014 22:00 24,2 C 2,6 C 60 % 95 % 1015,1 hPa 0,2 l/m 0,9 km/h (0 Bft) NW 0,000 mm 0,0 UV-I 0 W/m 1,9 C 2,6 C 1,7 km/h (1 Bft)
06.01.2014 23:00 24,0 C 2,2 C 60 % 96 % 1015,1 hPa 0,0 l/m 0,2 km/h (0 Bft) NW 0,000 mm 0,0 UV-I 0 W/m 1,6 C 2,2 C 0,7 km/h (0 Bft)
07.01.2014 00:00 23,8 C 1,8 C 61 % 97 % 1015,3 hPa 0,0 l/m 0,3 km/h (0 Bft) NW 0,000 mm 0,0 UV-I 0 W/m 1,4 C 1,8 C 0,9 km/h (0 Bft)
07.01.2014 01:00 23,7 C 1,7 C 61 % 97 % 1016,1 hPa 0,0 l/m 0,8 km/h (0 Bft) NW 0,000 mm 0,0 UV-I 0 W/m 1,3 C 1,7 C 1,5 km/h (1 Bft)
07.01.2014 02:00 23,6 C 1,8 C 61 % 98 % 1017,0 hPa 0,0 l/m 0,6 km/h (0 Bft) NW 0,000 mm 0,0 UV-I 0 W/m 1,4 C 1,8 C 1,6 km/h (1 Bft)
07.01.2014 03:00 23,5 C 1,6 C 61 % 97 % 1017,6 hPa 0,0 l/m 0,5 km/h (0 Bft) NW 0,000 mm 0,0 UV-I 0 W/m 1,2 C 1,6 C 1,2 km/h (1 Bft)
07.01.2014 04:00 23,4 C 1,2 C 61 % 97 % 1017,5 hPa 0,0 l/m 0,8 km/h (0 Bft) NW 0,000 mm 0,0 UV-I 0 W/m 0,8 C 1,2 C 1,7 km/h (1 Bft)
07.01.2014 05:00 23,4 C 1,5 C 61 % 98 % 1018,0 hPa 0,0 l/m 1,4 km/h (1 Bft) NW 0,000 mm 0,0 UV-I 0 W/m 1,2 C 1,5 C 2,3 km/h (1 Bft)
07.01.2014 06:00 23,5 C 2,2 C 61 % 95 % 1018,1 hPa 0,0 l/m 2,7 km/h (1 Bft) NW 0,000 mm 0,0 UV-I 0 W/m 1,5 C 2,2 C 4,2 km/h (1 Bft)
07.01.2014 07:00 23,7 C 1,5 C 61 % 95 % 1019,0 hPa 0,0 l/m 1,1 km/h (1 Bft) NW 0,000 mm 0,0 UV-I 0 W/m 0,7 C 1,5 C 2,1 km/h (1 Bft)
07.01.2014 08:00 23,7 C 0,5 C 61 % 96 % 1019,9 hPa 0,0 l/m 0,3 km/h (0 Bft) NW 0,000 mm 0,0 UV-I 11 W/m -0,0 C 0,5 C 0,8 km/h (0 Bft)
07.01.2014 09:00 23,7 C 0,6 C 60 % 97 % 1020,5 hPa 0,0 l/m 1,3 km/h (1 Bft) NW 0,000 mm 0,0 UV-I 45 W/m 0,3 C 0,6 C 2,5 km/h (1 Bft)
07.01.2014 10:00 23,6 C 2,5 C 54 % 95 % 1021,0 hPa 0,0 l/m 0,3 km/h (0 Bft) NW 0,025 mm 0,0 UV-I 127 W/m 1,7 C 2,5 C 1,2 km/h (1 Bft)
07.01.2014 11:00 23,9 C 6,2 C 54 % 85 % 1020,8 hPa 0,0 l/m 1,7 km/h (1 Bft) NW 0,051 mm 0,0 UV-I 163 W/m 3,9 C 6,2 C 3,4 km/h (1 Bft)
07.01.2014 12:00 23,8 C 7,9 C 53 % 80 % 1020,3 hPa 0,0 l/m 3,2 km/h (1 Bft) S-SW 0,076 mm 0,0 UV-I 137 W/m 4,7 C 7,7 C 5,4 km/h (1 Bft)
07.01.2014 13:00 23,7 C 8,5 C 51 % 80 % 1020,1 hPa 0,0 l/m 4,5 km/h (1 Bft) S 0,076 mm 0,0 UV-I 115 W/m 5,3 C 8,5 C 6,8 km/h (2 Bft)
07.01.2014 14:00 23,8 C 8,4 C 52 % 80 % 1020,0 hPa 0,0 l/m 4,3 km/h (1 Bft) S 0,051 mm 0,0 UV-I 72 W/m 5,2 C 8,3 C 6,5 km/h (2 Bft)
07.01.2014 15:00 23,7 C 8,4 C 51 % 80 % 1020,0 hPa 0,0 l/m 0,8 km/h (0 Bft) S-SW 0,051 mm 0,0 UV-I 27 W/m 5,1 C 8,4 C 1,9 km/h (1 Bft)
07.01.2014 16:00 23,8 C 7,9 C 52 % 83 % 1020,0 hPa 0,0 l/m 1,8 km/h (1 Bft) W-NW 0,025 mm 0,0 UV-I 6 W/m 5,2 C 7,9 C 3,0 km/h (1 Bft)
07.01.2014 17:00 24,2 C 6,9 C 53 % 87 % 1020,0 hPa 0,0 l/m 0,7 km/h (0 Bft) W-NW 0,000 mm 0,0 UV-I 0 W/m 4,9 C 6,9 C 1,6 km/h (1 Bft)
07.01.2014 18:00 24,0 C 6,3 C 52 % 90 % 1020,3 hPa 0,0 l/m 2,2 km/h (1 Bft) NW 0,000 mm 0,0 UV-I 0 W/m 4,7 C 6,3 C 3,4 km/h (1 Bft)
07.01.2014 19:00 23,8 C 5,8 C 53 % 90 % 1020,7 hPa 0,0 l/m 0,9 km/h (0 Bft) NW 0,000 mm 0,0 UV-I 0 W/m 4,3 C 5,8 C 2,1 km/h (1 Bft)
07.01.2014 20:00 23,8 C 4,7 C 53 % 92 % 1020,5 hPa 0,0 l/m 0,6 km/h (0 Bft) NW 0,000 mm 0,0 UV-I 0 W/m 3,6 C 4,7 C 1,0 km/h (0 Bft)
07.01.2014 21:00 24,1 C 3,6 C 54 % 94 % 1020,4 hPa 0,0 l/m 1,4 km/h (1 Bft) NW 0,000 mm 0,0 UV-I 0 W/m 2,8 C 3,6 C 2,4 km/h (1 Bft)
07.01.2014 22:00 24,3 C 2,9 C 55 % 96 % 1019,9 hPa 0,0 l/m 1,2 km/h (1 Bft) NW 0,000 mm 0,0 UV-I 0 W/m 2,3 C 2,9 C 2,1 km/h (1 Bft)
07.01.2014 23:00 24,1 C 2,3 C 55 % 96 % 1020,1 hPa 0,0 l/m 0,2 km/h (0 Bft) NW 0,000 mm 0,0 UV-I 0 W/m 1,7 C 2,3 C 0,4 km/h (0 Bft)
08.01.2014 00:00 23,9 C 1,7 C 56 % 96 % 1020,2 hPa 0,0 l/m 0,5 km/h (0 Bft) NW 0,000 mm 0,0 UV-I 0 W/m 1,2 C 1,7 C 1,2 km/h (1 Bft)
08.01.2014 01:00 23,7 C 1,9 C 56 % 98 % 1020,3 hPa 0,2 l/m 0,8 km/h (0 Bft) NW 0,000 mm 0,0 UV-I 0 W/m 1,6 C 1,9 C 1,5 km/h (1 Bft)
08.01.2014 02:00 23,6 C 2,3 C 56 % 98 % 1020,5 hPa 0,0 l/m 0,5 km/h (0 Bft) NW 0,000 mm 0,0 UV-I 0 W/m 2,0 C 2,3 C 1,2 km/h (1 Bft)
08.01.2014 03:00 23,4 C 2,6 C 57 % 98 % 1020,5 hPa 0,0 l/m 2,2 km/h (1 Bft) NW 0,000 mm 0,0 UV-I 0 W/m 2,3 C 2,6 C 3,3 km/h (1 Bft)
08.01.2014 04:00 23,4 C 1,9 C 57 % 97 % 1020,5 hPa 0,2 l/m 0,7 km/h (0 Bft) NW 0,000 mm 0,0 UV-I 0 W/m 1,5 C 1,9 C 1,4 km/h (1 Bft)
08.01.2014 05:00 23,3 C 2,0 C 57 % 98 % 1020,8 hPa 0,0 l/m 3,0 km/h (1 Bft) NW 0,000 mm 0,0 UV-I 0 W/m 1,8 C 2,0 C 4,6 km/h (1 Bft)
08.01.2014 06:00 23,2 C 3,7 C 57 % 99 % 1020,7 hPa 0,0 l/m 1,9 km/h (1 Bft) N-NO 0,000 mm 0,0 UV-I 0 W/m 3,5 C 3,6 C 3,3 km/h (1 Bft)
08.01.2014 07:00 23,2 C 3,2 C 57 % 98 % 1020,9 hPa 0,0 l/m 1,4 km/h (1 Bft) N-NO 0,000 mm 0,0 UV-I 0 W/m 2,9 C 3,2 C 2,6 km/h (1 Bft)
08.01.2014 08:00 23,2 C 3,1 C 57 % 98 % 1021,4 hPa 0,4 l/m 2,3 km/h (1 Bft) SW 0,000 mm 0,0 UV-I 11 W/m 2,9 C 3,1 C 4,1 km/h (1 Bft)
08.01.2014 09:00 23,2 C 4,8 C 57 % 98 % 1021,9 hPa 0,2 l/m 5,3 km/h (1 Bft) W-SW 0,000 mm 0,0 UV-I 42 W/m 4,6 C 4,5 C 9,1 km/h (2 Bft)
08.01.2014 10:00 23,4 C 6,4 C 58 % 95 % 1022,6 hPa 0,0 l/m 4,2 km/h (1 Bft) S-SW 0,025 mm 0,0 UV-I 75 W/m 5,7 C 6,2 C 7,3 km/h (2 Bft)
08.01.2014 11:00 23,6 C 7,0 C 59 % 95 % 1022,6 hPa 0,0 l/m 5,3 km/h (1 Bft) S 0,025 mm 0,0 UV-I 91 W/m 6,2 C 6,6 C 8,2 km/h (2 Bft)
08.01.2014 12:00 23,6 C 8,1 C 59 % 93 % 1022,0 hPa 0,0 l/m 9,1 km/h (2 Bft) S 0,052 mm 0,0 UV-I 69 W/m 7,0 C 6,2 C 13,3 km/h (3 Bft)
08.01.2014 13:00 23,6 C 8,7 C 59 % 92 % 1021,9 hPa 0,0 l/m 7,0 km/h (2 Bft) S 0,025 mm 0,0 UV-I 63 W/m 7,4 C 7,9 C 10,3 km/h (2 Bft)
08.01.2014 14:00 23,6 C 10,2 C 59 % 86 % 1021,7 hPa 0,0 l/m 7,5 km/h (2 Bft) W-SW 0,025 mm 0,0 UV-I 114 W/m 7,9 C 9,2 C 12,0 km/h (2 Bft)
08.01.2014 15:00 23,7 C 9,7 C 59 % 86 % 1021,7 hPa 0,0 l/m 9,3 km/h (2 Bft) W-SW 0,076 mm 0,0 UV-I 22 W/m 7,5 C 7,8 C 14,4 km/h (3 Bft)
08.01.2014 16:00 23,6 C 8,9 C 59 % 88 % 1021,8 hPa 0,0 l/m 3,5 km/h (1 Bft) S 0,025 mm 0,0 UV-I 6 W/m 7,1 C 8,9 C 5,5 km/h (1 Bft)
08.01.2014 17:00 23,6 C 8,1 C 58 % 91 % 1021,6 hPa 0,0 l/m 3,7 km/h (1 Bft) S 0,000 mm 0,0 UV-I 0 W/m 6,7 C 8,1 C 5,5 km/h (1 Bft)
08.01.2014 18:00 23,6 C 7,1 C 58 % 93 % 1021,6 hPa 0,0 l/m 1,3 km/h (1 Bft) S-SW 0,000 mm 0,0 UV-I 0 W/m 6,1 C 7,1 C 2,5 km/h (1 Bft)
08.01.2014 19:00 23,6 C 6,1 C 59 % 96 % 1021,8 hPa 0,0 l/m 1,3 km/h (1 Bft) W-NW 0,000 mm 0,0 UV-I 0 W/m 5,5 C 6,1 C 2,7 km/h (1 Bft)
08.01.2014 20:00 23,8 C 5,6 C 59 % 96 % 1021,9 hPa 0,0 l/m 2,0 km/h (1 Bft) W-NW 0,000 mm 0,0 UV-I 0 W/m 4,9 C 5,6 C 3,4 km/h (1 Bft)
08.01.2014 21:00 24,0 C 3,8 C 58 % 95 % 1021,7 hPa 0,0 l/m 1,5 km/h (1 Bft) SO 0,000 mm 0,0 UV-I 0 W/m 3,0 C 3,8 C 2,7 km/h (1 Bft)
08.01.2014 22:00 24,3 C 3,8 C 58 % 98 % 1021,7 hPa 0,0 l/m 1,8 km/h (1 Bft) N 0,000 mm 0,0 UV-I 0 W/m 3,5 C 3,8 C 3,2 km/h (1 Bft)
08.01.2014 23:00 24,0 C 3,8 C 58 % 98 % 1021,3 hPa 0,0 l/m 0,7 km/h (0 Bft) N 0,000 mm 0,0 UV-I 0 W/m 3,5 C 3,8 C 1,7 km/h (1 Bft)
09.01.2014 00:00 23,7 C 2,7 C 59 % 97 % 1020,7 hPa 0,0 l/m 0,4 km/h (0 Bft) N 0,000 mm 0,0 UV-I 0 W/m 2,3 C 2,7 C 1,1 km/h (1 Bft)
09.01.2014 01:00 23,6 C 2,1 C 59 % 97 % 1020,2 hPa 0,0 l/m 0,0 km/h (0 Bft) N 0,000 mm 0,0 UV-I 0 W/m 1,7 C 2,1 C 0,0 km/h (0 Bft)
09.01.2014 02:00 23,5 C 1,8 C 59 % 98 % 1019,5 hPa 0,0 l/m 0,1 km/h (0 Bft) N 0,000 mm 0,0 UV-I 0 W/m 1,4 C 1,8 C 0,3 km/h (0 Bft)
09.01.2014 03:00 23,4 C 1,6 C 59 % 98 % 1019,0 hPa 0,0 l/m 0,6 km/h (0 Bft) N 0,000 mm 0,0 UV-I 0 W/m 1,3 C 1,6 C 1,3 km/h (1 Bft)
09.01.2014 04:00 23,3 C 1,7 C 59 % 98 % 1018,2 hPa 0,0 l/m 0,3 km/h (0 Bft) N 0,000 mm 0,0 UV-I 0 W/m 1,4 C 1,7 C 0,7 km/h (0 Bft)
09.01.2014 05:00 23,3 C 1,9 C 59 % 99 % 1017,2 hPa 0,0 l/m 0,2 km/h (0 Bft) N 0,000 mm 0,0 UV-I 0 W/m 1,7 C 1,9 C 0,7 km/h (0 Bft)
09.01.2014 06:00 23,2 C 2,2 C 59 % 99 % 1016,6 hPa 0,2 l/m 0,2 km/h (0 Bft) N 0,000 mm 0,0 UV-I 0 W/m 2,1 C 2,2 C 0,7 km/h (0 Bft)
09.01.2014 07:00 23,2 C 2,1 C 59 % 99 % 1016,1 hPa 0,0 l/m 0,1 km/h (0 Bft) N 0,000 mm 0,0 UV-I 0 W/m 2,0 C 2,1 C 0,3 km/h (0 Bft)
09.01.2014 08:00 23,2 C 2,2 C 60 % 99 % 1015,8 hPa 0,0 l/m 0,9 km/h (0 Bft) N 0,000 mm 0,0 UV-I 16 W/m 2,0 C 2,2 C 1,5 km/h (1 Bft)
09.01.2014 09:00 23,2 C 4,2 C 60 % 98 % 1015,6 hPa 0,0 l/m 4,3 km/h (1 Bft) S 0,000 mm 0,0 UV-I 111 W/m 3,9 C 3,3 C 6,8 km/h (2 Bft)
09.01.2014 10:00 23,2 C 7,6 C 59 % 87 % 1014,7 hPa 0,0 l/m 7,5 km/h (2 Bft) W-SW 0,051 mm 0,0 UV-I 86 W/m 5,6 C 6,5 C 12,2 km/h (2 Bft)
09.01.2014 11:00 23,2 C 8,5 C 59 % 83 % 1014,2 hPa 0,0 l/m 8,1 km/h (2 Bft) W-SW 0,051 mm 0,0 UV-I 166 W/m 5,8 C 7,1 C 12,8 km/h (3 Bft)
09.01.2014 12:00 23,1 C 9,2 C 58 % 78 % 1013,2 hPa 0,0 l/m 7,8 km/h (2 Bft) S 0,076 mm 0,0 UV-I 122 W/m 5,6 C 8,0 C 11,9 km/h (2 Bft)
09.01.2014 13:00 23,2 C 8,8 C 57 % 78 % 1012,3 hPa 0,0 l/m 7,7 km/h (2 Bft) S 0,076 mm 0,0 UV-I 112 W/m 5,2 C 7,6 C 11,3 km/h (2 Bft)
09.01.2014 14:00 23,1 C 8,4 C 58 % 80 % 1011,3 hPa 0,0 l/m 7,0 km/h (2 Bft) S 0,076 mm 0,0 UV-I 64 W/m 5,1 C 7,6 C 10,5 km/h (2 Bft)
09.01.2014 15:00 23,1 C 8,1 C 58 % 81 % 1010,7 hPa 0,0 l/m 4,1 km/h (1 Bft) S-SO 0,051 mm 0,0 UV-I 25 W/m 5,0 C 8,0 C 6,7 km/h (2 Bft)
09.01.2014 16:00 23,1 C 7,7 C 58 % 83 % 1010,0 hPa 0,0 l/m 10,5 km/h (2 Bft) S 0,025 mm 0,0 UV-I 7 W/m 5,1 C 4,6 C 15,1 km/h (3 Bft)
09.01.2014 17:00 23,0 C 8,1 C 58 % 82 % 1009,4 hPa 0,0 l/m 12,4 km/h (3 Bft) S 0,025 mm 0,0 UV-I 0 W/m 5,1 C 4,3 C 18,8 km/h (3 Bft)
09.01.2014 18:00 23,0 C 8,2 C 58 % 80 % 1008,5 hPa 0,0 l/m 15,1 km/h (3 Bft) S 0,025 mm 0,0 UV-I 0 W/m 5,0 C 3,0 C 22,0 km/h (4 Bft)
09.01.2014 19:00 22,9 C 8,7 C 58 % 77 % 1008,5 hPa 0,0 l/m 16,0 km/h (3 Bft) S 0,025 mm 0,0 UV-I 0 W/m 4,9 C 3,2 C 24,4 km/h (4 Bft)
09.01.2014 20:00 22,9 C 8,8 C 58 % 76 % 1008,4 hPa 0,0 l/m 12,8 km/h (3 Bft) S 0,051 mm 0,0 UV-I 0 W/m 4,8 C 4,9 C 19,3 km/h (3 Bft)
09.01.2014 21:00 22,9 C 8,5 C 58 % 80 % 1008,8 hPa 0,2 l/m 13,7 km/h (3 Bft) W-SW 0,025 mm 0,0 UV-I 0 W/m 5,2 C 4,2 C 21,6 km/h (4 Bft)
09.01.2014 22:00 23,1 C 6,8 C 60 % 91 % 1009,6 hPa 0,6 l/m 17,8 km/h (3 Bft) W-SW 0,025 mm 0,0 UV-I 0 W/m 5,5 C 0,2 C 28,0 km/h (4 Bft)
09.01.2014 23:00 23,4 C 6,1 C 59 % 92 % 1010,4 hPa 0,4 l/m 15,3 km/h (3 Bft) W-SW 0,025 mm 0,0 UV-I 0 W/m 4,9 C 0,4 C 23,6 km/h (4 Bft)
10.01.2014 00:00 23,2 C 5,5 C 59 % 94 % 1010,5 hPa 0,8 l/m 12,3 km/h (3 Bft) W-SW 0,000 mm 0,0 UV-I 0 W/m 4,6 C 1,4 C 18,5 km/h (3 Bft)
10.01.2014 01:00 23,0 C 5,2 C 59 % 94 % 1010,9 hPa 0,4 l/m 12,8 km/h (3 Bft) W 0,000 mm 0,0 UV-I 0 W/m 4,3 C 0,8 C 19,4 km/h (3 Bft)
10.01.2014 02:00 22,9 C 4,7 C 59 % 90 % 1012,1 hPa 0,0 l/m 14,2 km/h (3 Bft) W-NW 0,000 mm 0,0 UV-I 0 W/m 3,1 C -0,6 C 21,3 km/h (4 Bft)
10.01.2014 03:00 22,9 C 3,3 C 59 % 87 % 1013,2 hPa 0,0 l/m 11,3 km/h (2 Bft) NW 0,025 mm 0,0 UV-I 0 W/m 1,3 C -0,6 C 17,4 km/h (3 Bft)
10.01.2014 04:00 22,8 C 2,7 C 59 % 88 % 1014,1 hPa 0,0 l/m 6,3 km/h (2 Bft) W-SW 0,000 mm 0,0 UV-I 0 W/m 0,9 C 1,8 C 9,4 km/h (2 Bft)
10.01.2014 05:00 22,8 C 2,2 C 59 % 89 % 1014,6 hPa 0,0 l/m 6,3 km/h (2 Bft) W-SW 0,025 mm 0,0 UV-I 0 W/m 0,5 C 1,4 C 9,8 km/h (2 Bft)
10.01.2014 06:00 22,7 C 1,9 C 59 % 89 % 1015,3 hPa 0,0 l/m 7,6 km/h (2 Bft) W-SW 0,000 mm 0,0 UV-I 0 W/m 0,3 C 0,6 C 11,7 km/h (2 Bft)
10.01.2014 07:00 22,7 C 2,3 C 59 % 90 % 1015,8 hPa 0,0 l/m 11,1 km/h (2 Bft) W 0,000 mm 0,0 UV-I 0 W/m 0,9 C -1,6 C 16,5 km/h (3 Bft)
10.01.2014 08:00 22,7 C 2,9 C 59 % 90 % 1016,4 hPa 0,0 l/m 12,7 km/h (3 Bft) W-SW 0,000 mm 0,0 UV-I 21 W/m 1,3 C -2,0 C 18,6 km/h (3 Bft)
10.01.2014 09:00 22,8 C 3,2 C 59 % 88 % 1017,1 hPa 0,0 l/m 12,5 km/h (3 Bft) W-SW 0,025 mm 0,0 UV-I 44 W/m 1,5 C -1,4 C 18,1 km/h (3 Bft)
10.01.2014 10:00 22,8 C 3,5 C 59 % 86 % 1017,7 hPa 0,0 l/m 11,4 km/h (2 Bft) W 0,025 mm 0,0 UV-I 80 W/m 1,4 C -0,4 C 17,5 km/h (3 Bft)
10.01.2014 11:00 22,8 C 3,7 C 59 % 83 % 1017,8 hPa 0,0 l/m 14,9 km/h (3 Bft) W 0,051 mm 0,0 UV-I 81 W/m 1,0 C -2,3 C 22,3 km/h (4 Bft)
10.01.2014 12:00 22,8 C 4,2 C 59 % 79 % 1017,5 hPa 0,0 l/m 12,3 km/h (3 Bft) W 0,051 mm 0,0 UV-I 108 W/m 0,9 C -0,2 C 18,7 km/h (3 Bft)
10.01.2014 13:00 22,7 C 4,4 C 59 % 78 % 1017,7 hPa 0,0 l/m 12,0 km/h (2 Bft) W 0,076 mm 0,0 UV-I 77 W/m 0,8 C 0,2 C 18,5 km/h (3 Bft)
10.01.2014 14:00 22,7 C 4,4 C 59 % 79 % 1017,9 hPa 0,0 l/m 9,6 km/h (2 Bft) W 0,051 mm 0,0 UV-I 36 W/m 1,1 C 1,8 C 14,9 km/h (3 Bft)
10.01.2014 15:00 22,7 C 4,4 C 59 % 79 % 1018,2 hPa 0,0 l/m 8,2 km/h (2 Bft) W-SW 0,025 mm 0,0 UV-I 23 W/m 1,2 C 2,8 C 12,4 km/h (3 Bft)
10.01.2014 16:00 22,7 C 3,9 C 59 % 86 % 1018,6 hPa 0,0 l/m 8,8 km/h (2 Bft) W-SW 0,025 mm 0,0 UV-I 5 W/m 1,7 C 1,8 C 13,5 km/h (3 Bft)
10.01.2014 17:00 22,9 C 2,9 C 60 % 94 % 1018,9 hPa 0,0 l/m 5,3 km/h (1 Bft) W-NW 0,000 mm 0,0 UV-I 0 W/m 2,0 C 2,6 C 8,4 km/h (2 Bft)
10.01.2014 18:00 23,3 C 2,8 C 59 % 94 % 1018,8 hPa 0,0 l/m 1,1 km/h (1 Bft) S 0,000 mm 0,0 UV-I 0 W/m 2,0 C 2,8 C 2,1 km/h (1 Bft)
10.01.2014 19:00 23,5 C 2,7 C 59 % 94 % 1019,1 hPa 0,0 l/m 2,6 km/h (1 Bft) S-SW 0,000 mm 0,0 UV-I 0 W/m 1,8 C 2,7 C 4,2 km/h (1 Bft)
10.01.2014 20:00 23,8 C 2,9 C 59 % 91 % 1019,4 hPa 0,0 l/m 3,9 km/h (1 Bft) W-SW 0,000 mm 0,0 UV-I 0 W/m 1,6 C 2,8 C 6,8 km/h (2 Bft)
10.01.2014 21:00 23,9 C 3,0 C 59 % 89 % 1019,5 hPa 0,0 l/m 2,5 km/h (1 Bft) SW 0,000 mm 0,0 UV-I 0 W/m 1,4 C 3,0 C 4,7 km/h (1 Bft)
10.01.2014 22:00 23,8 C 2,5 C 60 % 91 % 1019,7 hPa 0,0 l/m 3,1 km/h (1 Bft) SW 0,000 mm 0,0 UV-I 0 W/m 1,1 C 2,5 C 5,6 km/h (1 Bft)
10.01.2014 23:00 23,5 C 1,9 C 59 % 93 % 1019,8 hPa 0,0 l/m 1,2 km/h (1 Bft) SW 0,000 mm 0,0 UV-I 0 W/m 0,8 C 1,9 C 2,8 km/h (1 Bft)
11.01.2014 00:00 23,3 C 1,4 C 60 % 95 % 1019,6 hPa 0,0 l/m 1,0 km/h (0 Bft) S 0,000 mm 0,0 UV-I 0 W/m 0,6 C 1,4 C 2,2 km/h (1 Bft)
11.01.2014 01:00 23,2 C 1,0 C 60 % 95 % 1019,4 hPa 0,0 l/m 1,8 km/h (1 Bft) S-SW 0,000 mm 0,0 UV-I 0 W/m 0,3 C 1,0 C 3,4 km/h (1 Bft)
11.01.2014 02:00 23,1 C 1,2 C 60 % 97 % 1019,5 hPa 0,0 l/m 0,3 km/h (0 Bft) S-SW 0,000 mm 0,0 UV-I 0 W/m 0,7 C 1,2 C 1,0 km/h (0 Bft)
11.01.2014 03:00 23,1 C 1,3 C 60 % 96 % 1019,4 hPa 0,0 l/m 1,0 km/h (0 Bft) SO 0,000 mm 0,0 UV-I 0 W/m 0,7 C 1,3 C 2,1 km/h (1 Bft)
11.01.2014 04:00 23,0 C 0,9 C 60 % 95 % 1019,0 hPa 0,0 l/m 1,7 km/h (1 Bft) SO 0,000 mm 0,0 UV-I 0 W/m 0,2 C 0,9 C 2,8 km/h (1 Bft)
11.01.2014 05:00 22,9 C 0,2 C 60 % 95 % 1018,7 hPa 0,0 l/m 0,6 km/h (0 Bft) SO 0,000 mm 0,0 UV-I 0 W/m -0,5 C 0,2 C 1,5 km/h (1 Bft)
11.01.2014 06:00 22,8 C -0,8 C 60 % 95 % 1018,5 hPa 0,0 l/m 0,7 km/h (0 Bft) SO 0,000 mm 0,0 UV-I 0 W/m -1,5 C -0,8 C 1,7 km/h (1 Bft)
11.01.2014 07:00 22,8 C -1,4 C 60 % 96 % 1018,8 hPa 0,0 l/m 0,9 km/h (0 Bft) S-SO 0,000 mm 0,0 UV-I 0 W/m -1,9 C -1,4 C 1,9 km/h (1 Bft)
11.01.2014 08:00 22,8 C -1,9 C 60 % 97 % 1018,9 hPa 0,0 l/m 0,3 km/h (0 Bft) W-SW 0,000 mm 0,0 UV-I 18 W/m -2,4 C -1,9 C 0,9 km/h (0 Bft)
11.01.2014 09:00 22,8 C -0,2 C 60 % 98 % 1018,9 hPa 0,0 l/m 2,5 km/h (1 Bft) W 0,000 mm 0,0 UV-I 99 W/m -0,5 C -0,2 C 4,4 km/h (1 Bft)
11.01.2014 10:00 22,9 C 1,1 C 59 % 96 % 1018,6 hPa 0,2 l/m 3,1 km/h (1 Bft) W-NW 0,025 mm 0,0 UV-I 159 W/m 0,5 C 1,1 C 5,1 km/h (1 Bft)
11.01.2014 11:00 22,9 C 2,3 C 58 % 94 % 1018,4 hPa 0,0 l/m 4,7 km/h (1 Bft) W-SW 0,051 mm 0,0 UV-I 156 W/m 1,4 C 2,2 C 7,2 km/h (2 Bft)
11.01.2014 12:00 22,9 C 2,3 C 59 % 93 % 1017,9 hPa 0,0 l/m 4,8 km/h (1 Bft) SW 0,051 mm 0,0 UV-I 123 W/m 1,4 C 1,8 C 7,6 km/h (2 Bft)
11.01.2014 13:00 23,1 C 2,6 C 59 % 92 % 1017,6 hPa 0,0 l/m 6,1 km/h (2 Bft) S 0,051 mm 0,0 UV-I 93 W/m 1,4 C 2,0 C 10,2 km/h (2 Bft)
11.01.2014 14:00 23,6 C 2,5 C 59 % 92 % 1017,5 hPa 0,0 l/m 6,1 km/h (2 Bft) S-SW 0,025 mm 0,0 UV-I 52 W/m 1,4 C 1,6 C 9,8 km/h (2 Bft)
11.01.2014 15:00 23,5 C 2,7 C 59 % 93 % 1017,4 hPa 0,0 l/m 4,6 km/h (1 Bft) S 0,025 mm 0,0 UV-I 46 W/m 1,7 C 2,5 C 7,4 km/h (2 Bft)
11.01.2014 16:00 23,5 C 2,5 C 60 % 94 % 1017,3 hPa 0,0 l/m 4,9 km/h (1 Bft) SW 0,025 mm 0,0 UV-I 11 W/m 1,6 C 2,2 C 8,2 km/h (2 Bft)
11.01.2014 17:00 23,6 C 2,2 C 59 % 96 % 1017,6 hPa 0,0 l/m 6,5 km/h (2 Bft) SW 0,000 mm 0,0 UV-I 0 W/m 1,6 C 1,4 C 10,0 km/h (2 Bft)
11.01.2014 18:00 23,4 C 2,4 C 59 % 96 % 1017,6 hPa 0,0 l/m 7,5 km/h (2 Bft) SW 0,000 mm 0,0 UV-I 0 W/m 1,9 C 1,3 C 11,6 km/h (2 Bft)
11.01.2014 19:00 23,4 C 2,9 C 60 % 96 % 1017,9 hPa 0,0 l/m 5,6 km/h (1 Bft) SW 0,000 mm 0,0 UV-I 0 W/m 2,3 C 2,4 C 9,0 km/h (2 Bft)
11.01.2014 20:00 23,8 C 3,2 C 63 % 96 % 1018,4 hPa 0,2 l/m 6,8 km/h (2 Bft) W 0,000 mm 0,0 UV-I 0 W/m 2,7 C 2,0 C 10,5 km/h (2 Bft)
11.01.2014 21:00 23,9 C 4,1 C 63 % 91 % 1019,5 hPa 0,0 l/m 11,9 km/h (2 Bft) NW 0,000 mm 0,0 UV-I 0 W/m 2,7 C -0,1 C 18,5 km/h (3 Bft)
11.01.2014 22:00 23,8 C 3,7 C 64 % 86 % 1020,5 hPa 0,0 l/m 11,0 km/h (2 Bft) W-NW 0,000 mm 0,0 UV-I 0 W/m 1,6 C 0,1 C 17,1 km/h (3 Bft)
11.01.2014 23:00 23,6 C 2,9 C 63 % 86 % 1021,6 hPa 0,0 l/m 5,7 km/h (1 Bft) W 0,025 mm 0,0 UV-I 0 W/m 0,8 C 2,5 C 9,0 km/h (2 Bft)
12.01.2014 00:00 23,4 C 2,4 C 63 % 86 % 1022,5 hPa 0,0 l/m 8,9 km/h (2 Bft) W-NW 0,000 mm 0,0 UV-I 0 W/m 0,3 C 0,1 C 14,1 km/h (3 Bft)
12.01.2014 01:00 23,3 C 1,7 C 63 % 86 % 1023,0 hPa 0,0 l/m 6,0 km/h (2 Bft) W-SW 0,025 mm 0,0 UV-I 0 W/m -0,4 C 1,2 C 9,1 km/h (2 Bft)
12.01.2014 02:00 23,2 C 1,2 C 63 % 90 % 1023,7 hPa 0,0 l/m 5,3 km/h (1 Bft) W-SW 0,000 mm 0,0 UV-I 0 W/m -0,2 C 0,7 C 8,4 km/h (2 Bft)
12.01.2014 03:00 23,1 C 1,5 C 63 % 91 % 1024,3 hPa 0,0 l/m 9,1 km/h (2 Bft) W-SW 0,000 mm 0,0 UV-I 0 W/m 0,1 C -1,0 C 13,8 km/h (3 Bft)
12.01.2014 04:00 23,1 C 1,5 C 63 % 89 % 1024,5 hPa 0,0 l/m 9,1 km/h (2 Bft) W 0,000 mm 0,0 UV-I 0 W/m -0,0 C -0,9 C 13,5 km/h (3 Bft)
12.01.2014 05:00 23,0 C 1,2 C 63 % 88 % 1024,7 hPa 0,0 l/m 8,9 km/h (2 Bft) W-NW 0,000 mm 0,0 UV-I 0 W/m -0,7 C -1,2 C 13,4 km/h (3 Bft)
12.01.2014 06:00 22,9 C 0,7 C 63 % 87 % 1024,9 hPa 0,0 l/m 11,6 km/h (2 Bft) NW 0,000 mm 0,0 UV-I 0 W/m -1,1 C -3,7 C 16,4 km/h (3 Bft)
12.01.2014 07:00 22,9 C 0,3 C 63 % 88 % 1025,2 hPa 0,0 l/m 8,9 km/h (2 Bft) NW 0,025 mm 0,0 UV-I 0 W/m -1,4 C -2,1 C 12,8 km/h (3 Bft)
12.01.2014 08:00 22,9 C -0,1 C 63 % 90 % 1025,7 hPa 0,0 l/m 5,4 km/h (1 Bft) W-SW 0,000 mm 0,0 UV-I 34 W/m -1,5 C -0,5 C 8,3 km/h (2 Bft)
12.01.2014 09:00 23,0 C 0,3 C 64 % 90 % 1026,0 hPa 0,0 l/m 6,3 km/h (2 Bft) W 0,026 mm 0,0 UV-I 83 W/m -1,1 C -0,4 C 10,0 km/h (2 Bft)
12.01.2014 10:00 23,1 C 0,9 C 64 % 90 % 1026,3 hPa 0,0 l/m 5,1 km/h (1 Bft) S 0,025 mm 0,0 UV-I 155 W/m -0,6 C 0,7 C 8,0 km/h (2 Bft)
12.01.2014 11:00 23,0 C 1,4 C 63 % 87 % 1025,9 hPa 0,0 l/m 4,9 km/h (1 Bft) SW 0,051 mm 0,0 UV-I 93 W/m -0,5 C 1,2 C 7,9 km/h (2 Bft)
12.01.2014 12:00 22,9 C 1,5 C 63 % 87 % 1025,3 hPa 0,0 l/m 5,9 km/h (2 Bft) SW 0,025 mm 0,0 UV-I 117 W/m -0,5 C 1,1 C 9,3 km/h (2 Bft)
12.01.2014 13:00 22,8 C 1,9 C 62 % 83 % 1024,7 hPa 0,0 l/m 7,1 km/h (2 Bft) W-SW 0,051 mm 0,0 UV-I 161 W/m -0,6 C 0,9 C 10,5 km/h (2 Bft)
12.01.2014 14:00 22,8 C 2,3 C 62 % 81 % 1024,2 hPa 0,0 l/m 6,3 km/h (2 Bft) W-SW 0,076 mm 0,0 UV-I 118 W/m -0,6 C 1,6 C 9,9 km/h (2 Bft)
12.01.2014 15:00 22,7 C 1,7 C 57 % 85 % 1023,9 hPa 0,0 l/m 5,3 km/h (1 Bft) W-SW 0,051 mm 0,0 UV-I 57 W/m -0,6 C 1,4 C 8,1 km/h (2 Bft)
12.01.2014 16:00 23,0 C 0,9 C 58 % 87 % 1023,4 hPa 0,0 l/m 3,2 km/h (1 Bft) W-SW 0,025 mm 0,0 UV-I 19 W/m -1,0 C 0,9 C 5,0 km/h (1 Bft)
12.01.2014 17:00 23,0 C -0,3 C 59 % 90 % 1023,0 hPa 0,0 l/m 0,1 km/h (0 Bft) W 0,000 mm 0,0 UV-I 0 W/m -1,8 C -0,3 C 0,6 km/h (0 Bft)
12.01.2014 18:00 23,3 C -1,7 C 59 % 92 % 1023,0 hPa 0,0 l/m 0,0 km/h (0 Bft) W 0,000 mm 0,0 UV-I 0 W/m -2,8 C -1,7 C 0,3 km/h (0 Bft)
12.01.2014 19:00 23,5 C -2,6 C 59 % 94 % 1023,1 hPa 0,0 l/m 0,5 km/h (0 Bft) O 0,000 mm 0,0 UV-I 0 W/m -3,4 C -2,6 C 1,0 km/h (0 Bft)
12.01.2014 20:00 23,6 C -3,2 C 60 % 95 % 1022,8 hPa 0,0 l/m 0,1 km/h (0 Bft) O 0,000 mm 0,0 UV-I 0 W/m -3,9 C -3,2 C 0,7 km/h (0 Bft)
12.01.2014 21:00 23,7 C -3,6 C 60 % 96 % 1022,3 hPa 0,0 l/m 0,3 km/h (0 Bft) O 0,000 mm 0,0 UV-I 0 W/m -4,2 C -3,6 C 1,0 km/h (0 Bft)
12.01.2014 22:00 23,6 C -3,8 C 60 % 96 % 1021,7 hPa 0,0 l/m 0,0 km/h (0 Bft) N 0,000 mm 0,0 UV-I 0 W/m -4,3 C -3,8 C 0,0 km/h (0 Bft)
12.01.2014 23:00 23,5 C -4,3 C 60 % 95 % 1021,2 hPa 0,0 l/m 0,0 km/h (0 Bft) N 0,000 mm 0,0 UV-I 0 W/m -4,9 C -4,3 C 0,0 km/h (0 Bft)
Min-Datum _ 12.01.14 12.01.14 07.01.14 09.01.14 09.01.14 - 06.01.14 - - - - 12.01.14 12.01.14 06.01.14
_ Min-Zeit 15:17 23:59 13:10 12:43 18:36 - 00:00 - - - - 23:52 06:35 00:00
Minimum _ 22,4 C -4,6 C 47 % 75 % 1008,3 hPa - 0,0 km/h (0 Bft) - - - - -5,2 C -7,6 C 0,0 km/h (0 Bft)
Max-Datum _ 06.01.14 08.01.14 11.01.14 09.01.14 12.01.14 10.01.14 09.01.14 - 06.01.14 06.01.14 11.01.14 08.01.14 08.01.14 09.01.14
_ Max-Zeit 21:09 14:36 20:33 09:29 10:33 00:07 21:40 - 12:00 00:00 11:34 14:11 14:39 22:01
Maximum _ 24,6 C 10,6 C 64 % 100 % 1026,4 hPa 0,8 l/m 27,4 km/h
W-SW (4 Bft)
- 0,076 mm 0,0 UV-I 385 W/m 8,4 C 10,6 C 43,5 km/h
W (6 Bft)
Durchschnitt _ 23,4 C 3,2 C 59 % 91 % 1018,6 hPa #4,4 l/m 4,7 km/h (1 Bft) W-SW #2,581 mm 0,0 UV-I 74 W/m 1,9 C 2,2 C 7,4 km/h (2 Bft)